Погода в Назимове

Россия / Псковская область     56°24′06″N   31°05′01″E
темп.,
°C
ветер,
м/с
пор.,
м/с
влажн.,
%
обл.,
%
осадки,
мм/ч
давл.,
гПа
погр.,
м
26 июля, пн
пн2600:00+15вюв22645 0.0 102116
03:00+14юв22705 0.0 102114
06:00+14юв11763 0.0 102220
09:00+22юв12502 0.0 1021344
12:00+27вюв11363 0.0 10211615
15:00+28зсз11335 0.0 10202267
18:00+27с11355 0.0 10201963
21:00+20всв22610 0.0 102028
27 июля, вт
вт2700:00+17вюв367021 0.0 1021111
03:00+18вюв256359 0.0 1021107
06:00+16вюв247112 0.0 102088
09:00+23ююв245550 0.0 1020411
12:00+28ю2441100 0.0 10181610
15:00+27ююв2346100 0.0 1017833
18:00+25юв2454100 0.0 1016294
21:00+21ююз116696 0.0 101511
28 июля, ср
ср2800:00+21вюв276093 0.0 1014162
03:00+19вюв267281 0.1 1013139
06:00+16ююв389237 0.3 1012172
09:00+21ю3671100 0.3 1011447
12:00+24ююз3467100 0.4 10101128
15:00+19юз2598100 3.9 1010247
18:00+21з249040 0.2 1009487
21:00+18юз119535 0.2 100811
29 июля, чт
чт2900:00+17зюз22975 0.1 100829
03:00+16зюз239774 0.1 100857
06:00+16зюз249595 0.0 1008109
09:00+20зюз257696 0.0 1007340
12:00+25з4658100 0.3 10071502
15:00+25з464936 1.0 10071641
18:00+25зюз475389 0.1 1006703
21:00+19ююз227941 0.1 100630
30 июля, пт
пт3000:00+16юз24965 0.3 100670
03:00+15ююз259728 0.3 100693
06:00+16юз289519 0.0 1007211
09:00+18юз268311 0.1 1007283
12:00+19з488327 1.8 1006500
15:00+26з6102923 2.2 10042930
18:00+24зюз41041100 0.0 10042412
21:00+19зюз411511 0.0 1004485